Regional Weather Roundup
Issued by NWS Sterling, VA

Home | Current Version | Previous Version | Graphics & Text | Print | Product List | Glossary On
Versions: 1 2 3 4 5 6 7 8 9 10 11 12 13 14 15 16 17 18 19 20 21 22 23 24 25 26 27 28 29 30 31 32 33 34 35 36 37 38 39 40 41 42 43 44 45 46 47 48 49 50
000
ASUS41 KLWX 282311
RWRLWX

REGIONAL WEATHER ROUNDUP
NATIONAL WEATHER SERVICE BALTIMORE MD/WASHINGTON DC
700 PM EDT WED JUN 28 2017

Note: "FAIR" indicates few or no clouds below 12,000 feet
with no significant weather and/or obstructions to visibility.
 TC=TEMPERATURE CELSIUS

 * =Non NWS site. Station does not report precipitation (e.g. rain,
    snow, etc.), thunder, or fog.

DCZ001-MDZ009-015-VAZ040>042-051-053>054-290000-
WASHINGTON METRO

CITY           SKY/WX    TMP DP  RH WIND       PRES   REMARKS
WASHINGTON NAT PTSUNNY   79  53  40 S12       30.13F
DULLES         PTSUNNY   76  50  40 S5        30.13F
ANDREWS AFB    MOSUNNY   78  50  38 CALM      30.13S
FT BELVOIR     MOSUNNY   79  52  39 SE5       30.13F
QUANTICO       PTSUNNY   79  56  45 S9        30.15S
COLLEGE PARK*  MOSUNNY   79  49  33 S3        30.13S
LEESBURG*      CLOUDY    79  54  41 S8        30.14F
MANASSAS*      CLOUDY    77  55  46 S7        30.14S
GAITHERSBURG*  CLOUDY    79  51  37 SW6       30.15F

$$

MDZ006>007-011-014-290000-
BALTIMORE METRO

CITY           SKY/WX    TMP DP  RH WIND       PRES   REMARKS
BWI AIRPORT    CLOUDY    76  53  44 SE8       30.13S
MD SCIENCE CTR   N/A     80  49  33 MISG      30.14S
MARTIN STATE   SUNNY     79  55  44 S12       30.15S
ANNAPOLIS      CLOUDY    72  57  59 S10       30.14F
FORT MEADE*    MOSUNNY   73  54  49 SE7       30.16S

$$

MDZ012-015-019>023-290000-
MARYLAND EASTERN SHORE

CITY           SKY/WX    TMP DP  RH WIND       PRES   REMARKS
OCEAN CITY     SUNNY     71  59  65 S5        30.19S
SALISBURY      SUNNY     77  47  34 VRB3      30.16S
BAY BRIDGE AP* SUNNY     77  52  41 S9        30.15S
CAMBRIDGE*     SUNNY     75  54  46 S5        30.16S
EASTON*        SUNNY     77  48  36 CALM      30.19S

$$

MDZ017>025-290000-
SOUTHERN MARYLAND

CITY           SKY/WX    TMP DP  RH WIND       PRES   REMARKS
PATUXENT RIVER PTSUNNY   74  53  48 S9        30.16S
ST INIGOES     SUNNY     75  54  47 SE7       30.16S
LEONARDTOWN*   SUNNY     75  52  43 S3        30.17F

$$

MDZ003>005-290000-
NORTH CENTRAL MARYLAND

CITY           SKY/WX    TMP DP  RH WIND       PRES   REMARKS
FREDERICK*     SUNNY     77  46  33 S7        30.16F
HAGERSTOWN APT CLOUDY    78  46  32 S8        30.12F
WESTMINSTER*   MOSUNNY   79  46  31 SW6       30.15S

$$

MDZ501>502-290000-
WESTERN MARYLAND

CITY           SKY/WX    TMP DP  RH WIND       PRES   REMARKS
OAKLAND*       MOSUNNY   64  46  52 SW5       30.06S
CUMBERLAND*    CLOUDY    79  50  36 S5        30.15S

$$

VAZ025>031-290000-
SHENANDOAH VALLEY

CITY           SKY/WX    TMP DP  RH WIND       PRES   REMARKS
WINCHESTER*    CLOUDY    73  54  49 SE7       30.13S
FRONT ROYAL*   CLOUDY    75  54  46 S6        30.12F
LURAY*         MOSUNNY   77  50  38 SW3       30.13F
NEW MARKET*    CLOUDY    77  50  38 S6        30.12F
STAUNTON*      CLOUDY    75  54  46 S9        30.17S
WAYNESBORO*    CLOUDY    74  55  51 SE5       30.17R

$$

WVZ021-048>050-054>055-290000-
EASTERN WEST VIRGINIA PANHANDLE

CITY           SKY/WX    TMP DP  RH WIND       PRES   REMARKS
MARTINSBURG    CLOUDY    76  51  41 SE5       30.11F
PETERSBURG*    CLOUDY    81  49  32 CALM      30.11F

$$

VAZ036>039-050-290000-
CENTRAL FOOTHILLS

CITY           SKY/WX    TMP DP  RH WIND       PRES   REMARKS
CHARLOTTESVILL CLOUDY    79  54  41 S8        30.14S
CULPEPER*      CLOUDY    78  55  43 S6        30.14S
ORANGE*        CLOUDY    77  52  41 SE6       30.14S
GORDONSVILLE*  SUNNY     78  53  40 S3        30.14S
WARRENTON*     CLOUDY    79  46  31 SE6       30.13F

$$

VAZ055>057-290000-
NORTH AND CENTRAL PIEDMONT

CITY           SKY/WX    TMP DP  RH WIND       PRES   REMARKS
FREDERICKSBRG* SUNNY     80  53  39 S6        30.14S
STAFFORD*      MOSUNNY   79  50  35 S6        30.18S

$$

NCZ024-NYZ072-PAZ021-071-VAZ022-071-290000-
OTHER REGIONAL OBSERVATIONS

CITY           SKY/WX    TMP DP  RH WIND       PRES   REMARKS
NEW YORK CITY  MOSUNNY   77  49  37 VRB3      30.11S
PHILADELPHIA   PTSUNNY   79  47  32 SW13      30.12S
PITTSBURGH     CLOUDY    74  51  44 S10       30.10F
ROANOKE        MOSUNNY   77  56  48 SE14      30.17S
RICHMOND       PTSUNNY   78  52  40 SE8       30.16S
RALEIGH        MOSUNNY   82  54  37 CALM      30.17S

$$

ANZ530>537-290000-
MARINE OBSERVATIONS

STATION/POSITION TIME  TEMP    WIND        PRES
                       AIR SEA DIR/SP/G
                 (UTC) (F)     (DEG/KT/KT) (MB)
THOMAS PT LIGHT  2300   75 77  160/ 15/ 16   N/A
BALT KEY BRIDGE  2248   76     160/ 14/ 16 1020.0F
COVE POINT       2248   75     190/ 11/ 13 1021.8F
LEWISETTA        2248   75 80  180/  8/ 10 1021.5R
SOLOMONS ISLAND  2248   76 79  190/  7/  9   N/A
PINEY POINT      2248          160/ 13/ 14   N/A

$$




USA.gov is the U.S. government's official web portal to all federal, state and local government web resources and services.